Content
SEND FEEDBACK

Daily
Averages
Monthly
Summary
Ukraine

ZABOR'YE, UKRAINE


Home > Europe > Ukraine
Elevation: 511 feet     Latitude: 50 24N     Longitude: 030 27E

WEATHER
 
SELECT A DAY
Number of Records: 243,113;   Date Range: 3/5/97 - 8/30/14
 
SHARE

PRINT THIS DATA

[ ← Previous Day ]
WEATHER ALMANAC - JANUARY 31, 2013
[ Next Day → ]
[ °C ]   °F
Weather ElementAverageHighLow
Temperature31 °F36 °F (5:00 pm)26.6 °F (5:30 am)
Dewpoint29 °F35.6 °F (3:30 pm)24.8 °F (5:30 am)
Humidity91.9 %100 % (12:00 pm)78 % (2:00 am)
Barometer29.59 in29.80 in (2:00 am)29.53 in (11:00 am)
Wind Speed9.5 mph13.4 mph (8:32 am)
Weather ElementAverage
Visibility3.1 mi
Wind DirectionSW (224.1 °)

Weather ElementTotal
Precipitation---
Heating Degree Days33.7 (Base 65)
Averaged from 70 records on January 31, 2013
WEATHER CONDITIONS BREAKOUT
WIND DIRECTION BREAKOUT
WEATHER BY HOUR - JANUARY 31, 2013
[ °C ]   °F
Local TimeTemperatureDewpointHumidityBarometerVisibilityWind DirectionWind SpeedGust SpeedPrecipitationEventsConditions
12:30 AM30.2 °F26.6 °F86 %29.77 in5.0 miSouth (180°)6.7 mphOvercast
1:00 AM30.2 °F26.6 °F86 %29.77 in6.2 miSouth (180°)6.7 mphOvercast
1:30 AM30.2 °F26.6 °F86 %29.74 in6.2 miSouth (190°)8.9 mphOvercast
2:00 AM29.0 °F25.0 °F78 %29.80 in6.0 miSouth (180°)8.9 mphOvercast
2:00 AM30.2 °F26.6 °F86 %29.74 in6.2 miSouth (180°)8.9 mphOvercast
2:30 AM30.2 °F26.6 °F86 %29.71 in6.2 miSouth (180°)8.9 mphOvercast
3:00 AM30.2 °F26.6 °F86 %29.71 in6.2 miSouth (180°)8.9 mphOvercast
3:30 AM30.2 °F26.6 °F86 %29.68 in3.1 miSouth (180°)11.2 mphSnowLight Snow
3:42 AM30.2 °F26.6 °F86 %29.68 in1.6 miSouth (180°)8.9 mphSnowLight Snow
4:00 AM30.2 °F26.6 °F86 %29.68 in1.4 miSouth (180°)8.9 mphSnowLight Snow
4:25 AM28.4 °F26.6 °F93 %29.65 in0.9 miSouth (180°)11.2 mphSnowSnow
4:30 AM28.4 °F26.6 °F93 %29.65 in1.0 miSouth (180°)11.2 mphSnowSnow
5:00 AM27.0 °F25.0 °F91 %29.71 in2.0 miSouth (180°)11.2 mphSnowLight Snow
5:00 AM28.4 °F26.6 °F93 %29.65 in0.9 miSouth (180°)8.9 mphSnowSnow
5:30 AM26.6 °F24.8 °F93 %29.62 in1.4 miSouth (180°)11.2 mphSnowLight Snow
5:35 AM26.6 °F24.8 °F93 %29.62 in0.9 miSouth (180°)11.2 mphSnowSnow
6:00 AM26.6 °F24.8 °F93 %29.62 in0.8 miSouth (180°)11.2 mphSnowSnow
6:30 AM26.6 °F24.8 °F93 %29.62 in0.7 miSouth (180°)8.9 mphSnowSnow
7:00 AM26.6 °F24.8 °F93 %29.59 in0.8 miSouth (180°)11.2 mphSnowSnow
7:30 AM26.6 °F24.8 °F93 %29.59 in1.2 miSouth (180°)11.2 mphSnowSnow
7:31 AM26.6 °F24.8 °F93 %29.59 in0.8 miSouth (180°)11.2 mphSnowSnow
8:00 AM27.0 °F25.0 °F90 %29.64 in1.0 miSouth (170°)11.2 mphSnowSnow
8:00 AM26.6 °F24.8 °F93 %29.56 in1.1 miSouth (180°)8.9 mphSnowSnow
8:30 AM28.4 °F24.8 °F86 %29.56 in1.1 miSouth (180°)11.2 mphSnowSnow
8:32 AM28.4 °F24.8 °F86 %29.56 in0.9 miSouth (180°)13.4 mphSnowSnow
9:00 AM28.4 °F26.6 °F93 %29.56 in0.7 miSouth (190°)11.2 mphSnowSnow
9:09 AM28.4 °F26.6 °F93 %29.56 inSouth (190°)8.9 mphSnowHeavy Snow
9:13 AM28.4 °F26.6 °F93 %29.56 inSouth (190°)8.9 mphSnowHeavy Snow
9:30 AM28.4 °F26.6 °F93 %29.56 in0.4 miSSW (200°)8.9 mphSnowHeavy Snow
10:00 AM28.4 °F26.6 °F93 %29.56 inSouth (190°)11.2 mphSnowHeavy Snow
10:07 AM28.4 °F26.6 °F93 %29.56 in0.4 miSSW (200°)11.2 mphSnowHeavy Snow
10:30 AM28.4 °F26.6 °F93 %29.56 inSSW (200°)8.9 mphSnowHeavy Snow
11:00 AM28.0 °F26.0 °F89 %29.61 in0.0 miSouth (190°)8.9 mphSnowHeavy Snow
11:00 AM28.4 °F26.6 °F93 %29.53 in0.6 miSSW (200°)8.9 mphSnowHeavy Snow
11:20 AM28.4 °F26.6 °F93 %29.53 in0.7 miSSW (210°)8.9 mphSnowSnow
11:30 AM28.4 °F26.6 °F93 %29.53 in0.7 miSSW (210°)6.7 mphSnowSnow
12:00 PM28.4 °F28.4 °F100 %29.53 in0.9 miSSW (210°)8.9 mphSnowSnow
12:30 PM30.2 °F28.4 °F93 %29.53 in1.2 miSW (230°)8.9 mphSnowSnow
12:42 PM30.2 °F28.4 °F93 %29.53 in1.5 miSW (230°)6.7 mphSnowLight Snow
1:00 PM30.2 °F28.4 °F93 %29.53 in1.3 miWSW (240°)6.7 mphSnowLight Snow
1:15 PM30.2 °F30.2 °F100 %29.53 in1.3 miWSW (250°)6.7 mphSnowLight Snow
1:19 PM30.2 °F30.2 °F100 %29.53 in1.2 miWSW (250°)6.7 mphSnowSnow
1:26 PM30.2 °F30.2 °F100 %29.53 in0.8 miWSW (250°)6.7 mphSnowSnow Showers
1:30 PM30.2 °F30.2 °F100 %29.53 in0.9 miWSW (250°)6.7 mphSnowSnow Showers
1:33 PM32.0 °F30.2 °F93 %29.53 inWSW (250°)6.7 mphSnowHeavy Snow Showers
1:47 PM32.0 °F32.0 °F100 %29.53 in0.8 miWest (270°)8.9 mphSnowSnow Showers
2:00 PM32.0 °F31.0 °F93 %29.60 in1.0 miWNW (290°)2.2 mphSnowSnow
2:00 PM32.0 °F32.0 °F100 %29.53 in1.9 miWest (270°)6.7 mphSnowLight Snow Showers
2:30 PM33.8 °F33.8 °F100 %29.53 inWest (270°)8.9 mphRainLight Rain
3:00 PM33.8 °F33.8 °F100 %29.56 in1.4 miWest (280°)8.9 mphRainLight Rain
3:30 PM35.6 °F35.6 °F100 %29.56 in5.0 miWNW (290°)11.2 mphOvercast
4:00 PM35.6 °F35.6 °F100 %29.56 in5.6 miWNW (290°)11.2 mphOvercast
4:30 PM35.6 °F33.8 °F93 %29.56 in6.2 miWest (280°)11.2 mphMostly Cloudy
5:00 PM35.6 °F33.8 °F93 %29.56 in5.6 miWNW (290°)11.2 mphMostly Cloudy
5:00 PM36.0 °F33.0 °F84 %29.61 in6.0 miWNW (300°)6.7 mphPartly Cloudy
5:30 PM35.6 °F33.8 °F93 %29.56 in5.6 miWest (280°)11.2 mphMostly Cloudy
6:00 PM35.6 °F33.8 °F93 %29.56 in5.6 miWest (280°)6.7 mphMostly Cloudy
6:30 PM35.6 °F33.8 °F93 %29.56 in5.0 miWest (280°)8.9 mphMostly Cloudy
7:00 PM35.6 °F33.8 °F93 %29.56 in6.2 miWest (260°)11.2 mphMostly Cloudy
7:30 PM35.6 °F33.8 °F93 %29.56 in5.0 miWest (270°)11.2 mph
8:00 PM36.0 °F32.0 °F79 %29.62 in6.0 miWest (270°)8.9 mphPartly Cloudy
8:00 PM35.6 °F33.8 °F93 %29.56 in5.6 miWest (270°)11.2 mph
8:30 PM35.6 °F32.0 °F87 %29.56 inWest (270°)11.2 mphClear
9:00 PM35.6 °F32.0 °F87 %29.56 inWest (260°)8.9 mphClear
9:30 PM35.6 °F33.8 °F93 %29.56 in6.2 miWest (270°)11.2 mphMostly Cloudy
10:00 PM35.6 °F33.8 °F93 %29.56 in6.2 miWest (270°)13.4 mphMostly Cloudy
10:30 PM35.6 °F33.8 °F93 %29.56 in6.2 miWest (260°)13.4 mphMostly Cloudy
11:00 PM36.0 °F32.0 °F78 %29.61 in12.0 miWest (270°)11.2 mphOvercast
11:00 PM35.6 °F33.8 °F93 %29.56 in6.2 miWest (260°)11.2 mphMostly Cloudy
11:30 PM35.6 °F33.8 °F93 %29.56 in5.6 miWest (260°)11.2 mphOvercast
Hourly data recorded from UKKK, located miles away from Zabor'ye, Ukraine







STORIES FROM OUR PARTNERS